MPEC 2004-H24 : 2004 HL

The following Minor Planet Electronic Circular may be linked-to from your own Web pages, but must not otherwise be redistributed electronically.


Read MPEC 2004-H23 Read MPEC 2004-H25


M.P.E.C. 2004-H24                                Issued 2004 Apr. 18, 13:53 UT

     The Minor Planet Electronic Circulars contain information on unusual
         minor planets and routine data on comets.  They are published
   on behalf of Commission 20 of the International Astronomical Union by the
          Minor Planet Center, Smithsonian Astrophysical Observatory,
                          Cambridge, MA 02138, U.S.A.

         Supported in part by the Steven and Michele Kirsch Foundation
             Prepared using the Tamkin Foundation Computer Network

                              MPC@CFA.HARVARD.EDU
          URL http://cfa-www.harvard.edu/iau/mpc.html  ISSN 1523-6714

                                    2004 HL

Observations:
     K04H00L* C2004 04 16.30521 15 00 16.94 -06 17 04.5          19.1   EH024704
     K04H00L  C2004 04 16.31655 15 00 34.49 -06 22 10.2          19.8   EH024704
     K04H00L  C2004 04 16.32736 15 00 51.23 -06 27 01.9          19.1   EH024704
     K04H00L  C2004 04 16.34943 15 01 25.21 -06 36 55.7          19.2   EH024704
     K04H00L  C2004 04 17.34598 15 29 01.97 -13 30 27.5          19.4   EH024704
     K04H00L  C2004 04 17.34836 15 29 05.21 -13 31 22.5          18.9   EH024704
     K04H00L  C2004 04 17.35633 15 29 16.19 -13 34 23.9          19.4   EH024704
     K04H00L  C2004 04 17.35901 15 29 19.90 -13 35 24.7          19.3   EH024704
     K04H00L  C2004 04 17.36669 15 29 30.53 -13 38 21.1          19.2   EH024704
     K04H00L  C2004 04 17.36967 15 29 34.68 -13 39 28.1          19.1   EH024704
     K04H00L  C2004 04 17.37702 15 29 44.79 -13 42 15.1          19.3   EH024704
     K04H00L  C2004 04 17.38047 15 29 49.46 -13 43 34.8          19.4   EH024704
     K04H00L  C2004 04 17.38781 15 29 59.60 -13 46 19.7          19.2   EH024704
     K04H00L  C2004 04 17.39122 15 30 04.30 -13 47 36.4          19.3   EH024704
     K04H00L  C2004 04 17.56146 15 34 39.23 -14 39 50.6          18.7 R EH024474
     K04H00L  C2004 04 17.56262 15 34 40.82 -14 40 16.3          18.9 R EH024474
     K04H00L  C2004 04 17.56367 15 34 42.27 -14 40 39.6          18.6 R EH024474
     K04H00L  C2004 04 17.56678 15 34 46.55 -14 41 48.8          18.6 R EH024474
     K04H00L  C2004 04 17.56794 15 34 48.07 -14 42 14.7          18.4 R EH024474
     K04H00L  C2004 04 17.57130 15 34 52.77 -14 43 27.8          18.1 R EH024474
     K04H00L  C2004 04 17.57707 15 35 00.69 -14 45 35.7          18.6 R EH024474
     K04H00L  C2004 04 17.71726 15 38 12.49 -15 35 40.7          18.7 R EH024474
     K04H00L  C2004 04 17.71863 15 38 14.40 -15 36 09.0          18.7 R EH024474
     K04H00L  C2004 04 17.72244 15 38 19.68 -15 37 29.1          18.6 R EH024474
     K04H00L  C2004 04 17.72651 15 38 25.32 -15 38 53.4          18.0 R EH024474

Observer details:
474 Mount John Observatory, Lake Tekapo.  Observer A. C. Gilmore.  Measurer
    P. M. Kilmartin.  0.6-m f/6.4 reflector + CCD.
704 Lincoln Laboratory ETS, New Mexico.  Observers M. Blythe, F. Shelly,
    M. Bezpalko, R. Huber, L. Manguso, D. Torres, R. Kracke, M. McCleary,
    H. Stange, A. Milner.  Measurers J. Stuart, R. Sayer, J. Evans, J. Kommers.
    1.0-m f/2.15 reflector + CCD.

Orbital elements:
2004 HL
Epoch 2004 July 14.0 TT = JDT 2453200.5                 MPC
M  48.37575              (2000.0)            P               Q
n   0.50846072     Peri.  170.26806     -0.94154605     +0.33562052
a   1.5546446      Node    29.39418     -0.31294183     -0.83930823
e   0.3464814      Incl.    3.40520     -0.12473346     -0.42769213
P   1.94           H   26.5           G   0.15           U   6
Residuals in seconds of arc
040416 704  0.3+  0.3-    040417 704  0.7+  0.4+    040417 474  0.9-  0.6-
040416 704  0.2-  0.4+    040417 704  0.4+  0.4+    040417 474  0.3+  0.4+
040416 704  0.1+  0.2+    040417 704  0.8-  1.1-    040417 474  0.3+  0.4-
040416 704  0.4-  0.4-    040417 704  0.4-  0.0     040417 474  0.2-  0.1-
040417 704  1.0+  0.0     040417 704  0.3-  0.2+    040417 474  0.0   0.2+
040417 704  0.2+  0.4-    040417 474  0.2+  0.3+    040417 474  0.1-  0.4-
040417 704  0.4-  0.6+    040417 474  0.1+  0.2+    040417 474  0.2-  0.0
040417 704  0.3-  1.0+    040417 474  0.2+  0.2+
040417 704  0.1+  0.3-    040417 474  0.2+  0.3-

Ephemeris:
2004 HL                  a,e,i = 1.55, 0.35, 3                   q = 1.0160
Date    TT    R. A. (2000) Decl.     Delta      r     Elong.  Phase     V
2004 04 15    14 20.32   +04 09.6    0.014    1.017   161.9    17.9    18.3
2004 04 16    14 51.11   -03 51.2    0.015    1.018   160.7    19.0    18.4
2004 04 17    15 19.68   -11 07.7    0.016    1.018   155.8    23.8    18.7
2004 04 18    15 45.46   -17 17.1    0.017    1.019   150.1    29.4    19.0
2004 04 19    16 08.22   -22 16.0    0.019    1.020   144.9    34.5    19.4
2004 04 20    16 28.07   -26 12.3    0.021    1.021   140.6    38.7    19.7
2004 04 21    16 45.25   -29 17.9    0.023    1.022   137.1    42.1    20.0
2004 04 22    17 00.07   -31 43.8    0.025    1.023   134.3    44.7    20.3
2004 04 23    17 12.85   -33 39.6    0.028    1.024   132.2    46.7    20.5
2004 04 24    17 23.88   -35 12.3    0.030    1.026   130.5    48.2    20.8
2004 04 25    17 33.44   -36 27.4    0.033    1.027   129.3    49.3    21.0
2004 04 26    17 41.75   -37 28.9    0.035    1.029   128.4    50.1    21.2
2004 04 27    17 48.98   -38 19.8    0.038    1.030   127.7    50.6    21.3
2004 04 28    17 55.31   -39 02.5    0.041    1.032   127.3    50.9    21.5
2004 04 29    18 00.85   -39 38.5    0.043    1.034   127.0    51.1    21.7
2004 04 30    18 05.72   -40 09.2    0.046    1.036   126.9    51.1    21.8
2004 05 01    18 10.01   -40 35.5    0.049    1.038   126.9    51.0    21.9
2004 05 02    18 13.78   -40 58.3    0.052    1.040   127.0    50.7    22.0
2004 05 03    18 17.11   -41 18.1    0.054    1.042   127.2    50.4    22.1
2004 05 04    18 20.04   -41 35.4    0.057    1.044   127.5    50.0    22.2
2004 05 05    18 22.61   -41 50.7    0.060    1.046   127.9    49.5    22.3

Timothy B. Spahr             (C) Copyright 2004 MPC           M.P.E.C. 2004-H24

Read MPEC 2004-H23 Read MPEC 2004-H25


Our Web policy. Index to the CBAT/MPC/ICQ pages.

MPC